Location: Bathurst
(33.4193°S, 149.5775°E)
Time: 09:05:08
(UTC+10:00)

Vanguard 1 Rocket - Pass Details

Date: 19 June 2021
Orbit: 650 x 4226 km, 34.3° (Epoch: 02 August)

Event Time Altitude Azimuth Distance (km) Brightness Sun altitude
Rises 04:59:45 0° 345° (NNW) 8,337 12.3 -25.3°
Reaches altitude 10° 05:07:52 10° 357° (N) 7,418 12.1 -23.7°
Maximum altitude 05:25:16 23° 40° (NE) 5,863 12.1 -20.1°
Drops below altitude 10° 05:39:01 10° 84° (E) 5,934 12.8 -17.4°
Sets 05:44:11 0° 96° (E) 6,423 13.0 -16.4°
